Miscellaneous Local Product
Issued by NWS North Platte, NE

Home | Current Version | Previous Version | Text Only | Print | Product List | Glossary On
Versions: 1 2 3 4 5 6 7 8 9 10 11 12 13 14 15 16 17 18 19 20 21 22 23 24 25 26 27 28 29 30 31 32 33 34 35 36 37 38 39 40 41 42 43 44 45 46 47 48 49 50
000
AXUS43 KLBF 231310
MISLBF


WESTERN AND NORTH CENTRAL NEBRASKA HOURLY WEATHER ROUNDUP
NATIONAL WEATHER SERVICE NORTH PLATTE NE
800 AM CDT WED APR 23 2014

***STATIONS NOT REPORTING VARIABLES SUCH AS SKY/WEATHER OR
PRESSURE ARE PROVIDED BY THE NEBRASKA DEPARTMENT OF
ROADS...RAWS...AND APRS NETWORKS...AND ARE NOT UNDER
NATIONAL WEATHER SERVICE QUALITY CONTROL***

...OBSERVATIONS IN AND NEAR THE EASTERN PANHANDLE OF NEBRASKA...

CITY           SKY/WX    TMP DP  RH WIND       PRES   REMARKS
PINE RIDGE     CLOUDY    55  47  74 SW10      29.50S
CHADRON        CLOUDY    57  45  64 W12       29.52R
ALLIANCE       CLOUDY    51  45  79 SW3       29.53R
SIDNEY         CLOUDY    49  42  77 SW9       29.54R
WHITECLAY        N/A     55  45  69 E6          N/A
CRESCENT LAKE    N/A     52  46  80 SE5         N/A
LISCO            N/A     56  44  62 E3          N/A
BIG SPRINGS      N/A     53  46  77 S7          N/A
LEWELLEN         N/A     53  44  72 SE6         N/A
$$

...OBSERVATIONS IN SOUTHWEST NEBRASKA AND FAR NORTHEAST COLORADO...

CITY           SKY/WX    TMP DP  RH WIND       PRES   REMARKS
WRAY           FAIR      63  42  46 SW20G26   29.53F
HOLYOKE        FAIR      61  43  51 SW10      29.53S
IMPERIAL       CLOUDY    58  43  57 S9        29.53F
OGALLALA       CLOUDY    52  44  72 E9        29.53F
NORTH PLATTE   CLOUDY    56  41  57 SE15G23   29.58S
MCCOOK         CLOUDY    56  46  69 SE10      29.60F
LEXINGTON      CLOUDY    55  38  54 SE21G31   29.64F
PAXTON           N/A     53  44  72 CALM        N/A
SUTHERLAND       N/A     51  44  75 SE12        N/A
GOTHENBURG       N/A     56  41  56 SE9G17      N/A
CALLAWAY         N/A     52  38  60 SE25        N/A
$$

...OBSERVATIONS IN NORTH CENTRAL NEBRASKA...

CITY           SKY/WX    TMP DP  RH WIND       PRES   REMARKS
VALENTINE      CLOUDY    55  34  45 SE16      29.53F
THEDFORD       CLOUDY    56  36  46 SE22G30   29.55F
AINSWORTH      CLOUDY    55  37  50 S24G30    29.54F
O`NEILL        PTSUNNY   54  35  48 SE23G33   29.67F
ORD            CLOUDY    54  38  54 SE18G29   29.67F
BROKEN BOW     PTSUNNY   53  36  52 SE20G30   29.64F
BROWNLEE         N/A     58  35  42 S21         N/A
SPRINGVIEW       N/A     56  38  51 SE10G23     N/A
DUNNING          N/A     55  36  50 S24         N/A
BREWSTER         N/A     57  37  46 S30         N/A
ROSE             N/A     56  41  55 E23         N/A
NEWPORT          N/A     54  38  55 SE25        N/A
COMSTOCK         N/A     58  39  48 S21         N/A
CHAMBERS         N/A     52  36  54 SE12G21     N/A
EWING            N/A     52  38  59 S14G24      N/A
$$

...SOME WEATHER OBSERVATIONS FROM AROUND THE REGION...

CITY           SKY/WX    TMP DP  RH WIND       PRES   REMARKS
DENVER         MOCLDY    57  27  31 S15       29.60R
LARAMIE        CLOUDY    38  29  70 NE6       29.74R WCI  33
CHEYENNE       PTCLDY    45  32  60 NW23G33   29.65R
SCOTTSBLUFF    CLOUDY    51  44  77 W7        29.57R
RAPID CITY     CLOUDY    56  43  61 CALM      29.43F
PIERRE         CLOUDY    52  35  52 E22       29.55R
WINNER         FAIR      56  33  42 SE22G33   29.54F
SIOUX FALLS    CLOUDY    49  36  61 SE25G37   29.86R
OMAHA          LGT RAIN  52  39  61 SE18      29.94F
GRAND ISLAND   CLOUDY    53  39  59 S18G38    29.74S
KANSAS CITY    CLOUDY    55  36  48 SE12      30.01R
WICHITA        PTSUNNY   59  37  44 SE17      29.86F
HAYS           PTSUNNY  N/A N/A N/A S22       29.73F
LIBERAL        CLOUDY    61  43  51 E17       29.78R
GOODLAND       CLOUDY    63  42  46 S23G33    29.61S
$$



USA.gov is the U.S. government's official web portal to all federal, state and local government web resources and services.